This is the latest recevied weather packets stored in our database for station/object W6MAF. If no packets are shown the sender has not sent any weather packets the latest 10 day(s).
| Time | Temp. | Humidity | Pressure | Rain* | Wind** | Luminosity | Snow |
|---|---|---|---|---|---|---|---|
| 1777836932 | 17.22° C | 31% | - | 0 mm | 6.71 m/s, 172° | - | - |
| 1777836635 | 17.78° C | 32% | - | 0 mm | 5.81 m/s, 167° | - | - |
| 1777836374 | 17.78° C | 32% | - | 0 mm | 5.36 m/s, 194° | - | - |
| 1777836337 | 17.78° C | 32% | - | 0 mm | 5.36 m/s, 194° | - | - |
| 1777836039 | 17.22° C | 31% | - | 0 mm | 7.15 m/s, 190° | - | - |
| 1777835441 | 17.78° C | 32% | - | 0 mm | 7.6 m/s, 200° | - | - |
| 1777835143 | 17.78° C | 33% | - | 0 mm | 4.02 m/s, 232° | - | - |
| 1777834845 | 17.22° C | 33% | - | 0 mm | 4.47 m/s, 159° | - | - |
| 1777834547 | 17.22° C | 35% | - | 0 mm | 5.81 m/s, 194° | - | - |
| 1777834250 | 16.67° C | 35% | - | 0 mm | 7.6 m/s, 183° | - | - |
| 1777833949 | 16.67° C | 42% | - | 0 mm | 7.15 m/s, 186° | - | - |
| 1777833651 | 16.67° C | 47% | - | 0 mm | 4.47 m/s, 221° | - | - |
| 1777833353 | 16.11° C | 50% | - | 0 mm | 4.92 m/s, 229° | - | - |
| 1777833056 | 16.11° C | 52% | - | 0 mm | 5.81 m/s, 232° | - | - |
| 1777832758 | 16.11° C | 54% | - | 0 mm | 6.26 m/s, 224° | - | - |
| 1777832160 | 15.56° C | 59% | - | 0 mm | 8.05 m/s, 245° | - | - |
| 1777831862 | 15° C | 62% | - | 0 mm | 8.94 m/s, 224° | - | - |
| 1777831564 | 15° C | 65% | - | 0 mm | 7.15 m/s, 208° | - | - |
| 1777831266 | 15° C | 68% | - | 0 mm | 8.05 m/s, 224° | - | - |
| 1777830969 | 14.44° C | 71% | - | 0 mm | 7.15 m/s, 225° | - | - |
| 1777830671 | 13.89° C | 74% | - | 0 mm | 8.49 m/s, 222° | - | - |
| 1777830370 | 13.89° C | 76% | - | 0 mm | 6.71 m/s, 229° | - | - |
| 1777829775 | 13.89° C | 80% | - | 0 mm | 8.49 m/s, 253° | - | - |
| 1777829477 | 13.33° C | 82% | - | 0 mm | 7.6 m/s, 246° | - | - |
| 1777829179 | 13.33° C | 84% | - | 0 mm | 7.15 m/s, 231° | - | - |
* Rain latest hour (hover to see other rain measurements)
** Current wind speed in m/s (hover to see current wind gust speed)